Погода в Капитоновке

Россия / Оренбургская область     51°57′27″N   54°07′04″E
темп.,
°C
ветер,
м/с
пор.,
м/с
влажн.,
%
обл.,
%
осадки,
мм/ч
давл.,
гПа
погр.,
м
25 июля, вс
вс2523:00+19с335162 0.0 101049
02:00+18ссз225419 0.0 101115
05:00+18ссз2256100 0.0 101254
08:00+18с476624 0.0 1014294
11:00+23с55443 0.0 10151437
14:00+25ссз553312 0.0 10152512
17:00+26ссз542981 0.0 10162820
20:00+22с67340 0.0 10181062
26 июля, пн
пн2623:00+16с37430 0.0 1020114
02:00+14с410440 0.0 1021203
05:00+12ссз22480 0.0 102126
08:00+15ссз45430 0.0 1022266
11:00+21с43330 0.0 10211146
14:00+24с43265 0.0 10212336
17:00+24ссз65254 0.0 10202538
20:00+22с35305 0.0 1020339
27 июля, вт
вт2723:00+16с22397 0.0 102012
02:00+15ссз22435 0.0 102014
05:00+13с33503 0.0 102027
08:00+18с35420 0.0 1020199
11:00+23ссз45325 0.0 10191974
14:00+25сз452737 0.0 10182873
17:00+26ссз562441 0.0 10153056
20:00+23ссз573484 0.0 1016823
28 июля, ср
ср2823:00+18зсз224955 0.0 101615
02:00+16зсз33584 0.0 101532
05:00+14ссз33763 0.0 101549
08:00+16с610721 0.0 1016500
11:00+22с68380 0.0 10151780
14:00+24с56305 0.0 10152401
17:00+25с46265 0.0 10142747
20:00+24ссз57291 0.0 1014605
29 июля, чт
чт2923:00+17св22484 0.0 101514
02:00+15ююв00500 0.0 101511
05:00+14ююз11540 0.0 101511
08:00+19юз22420 0.0 1015179
11:00+25зюз342885 0.0 10141620
14:00+28зюз452599 0.0 10132714
17:00+29зюз462594 0.0 10112888
20:00+26ююв2232100 0.0 101042